Terminal Aerodrome Forecast
Issued by NWS

Home | Current Version | Previous Version | Text Only | Print | Product List | Glossary On
Versions: 1 2 3 4 5 6 7 8 9 10 11 12 13 14
000
FTUS46 KSEW 222300
TAFBFI
TAF
KBFI 222320Z 2300/2324 29006KT P6SM BKN045 BKN100
     FM230600 VRB03KT P6SM BKN040 OVC070
     FM231700 20009KT P6SM -SHRA BKN015 OVC030=

USA.gov is the U.S. government's official web portal to all federal, state and local government web resources and services.